Date String (YYYY-MM-DD hh:mm:ss) UTC,Instrument flags,Ambient pressure (hPa),Sample flow (lpm),Bypass flow (lpm),Sample temperature (°C),Ambient temperature (°C),ASC tube jacket temperature (°C),LED temperature (°C),Box temperature (°C),Sample RH (%),Span deviation,Mass concentration (μg/m³),Mass concentration (μg/m³),Mass concentration (μg/m³)
DateTimeUTC,F1_M11,P_M11,Q1_M11,Q2_M11,T1_M11,T2_M11,T3_M11,T4_M11,T5_M11,U1_M11,ZSPAN_M11,X0_M11,X2_M11,X1_M11
2021-11-27 09:00:00,,0826.1,4.99,0.00,28.2,27.0,00.0,37.3,29.8,07.3,0000.0,0001.87,0000.90,0000.59
2021-11-27 09:01:00,,0826.2,5.01,0.00,28.2,27.0,00.0,37.3,29.8,07.4,0000.0,0002.01,0000.93,0000.59
2021-11-27 09:02:00,,0826.2,4.99,0.00,28.2,27.0,00.0,37.3,29.8,07.4,0000.0,0002.06,0000.95,0000.58
2021-11-27 09:03:00,,0826.2,4.99,0.00,28.2,27.0,00.0,37.3,29.8,07.4,0000.0,0002.08,0000.95,0000.58
2021-11-27 09:04:00,,0826.3,5.01,0.00,28.2,27.1,00.0,37.3,29.8,07.4,0000.0,0002.05,0000.96,0000.58
2021-11-27 09:05:00,,0826.3,5.00,0.00,28.2,27.1,00.0,37.3,29.8,07.4,0000.0,0002.04,0000.95,0000.58
2021-11-27 09:06:00,,0826.4,4.98,0.00,28.1,27.1,00.0,37.3,29.8,07.4,0000.0,0001.98,0000.92,0000.58
2021-11-27 09:07:00,,0826.5,5.00,0.00,28.1,27.1,00.0,37.3,29.8,07.5,0000.0,0001.81,0000.86,0000.57
2021-11-27 09:08:00,,0826.5,5.00,0.00,28.1,27.1,00.0,37.3,29.8,07.5,0000.0,0001.35,0000.82,0000.57
2021-11-27 09:09:00,,0826.5,5.00,0.00,28.2,27.1,00.0,37.3,29.8,07.5,0000.0,0001.39,0000.86,0000.57
2021-11-27 09:10:00,,0826.5,5.01,0.00,28.2,27.1,00.0,37.2,29.8,07.5,0000.0,0001.41,0000.87,0000.57
2021-11-27 09:11:00,,0826.5,5.01,0.00,28.2,27.1,00.0,37.3,29.9,07.4,0000.0,0001.47,0000.88,0000.57
2021-11-27 09:12:00,,0826.5,5.00,0.00,28.2,27.2,00.0,37.2,29.9,07.4,0000.0,0001.34,0000.85,0000.58
2021-11-27 09:13:00,,0826.5,4.99,0.00,28.2,27.2,00.0,37.2,29.9,07.5,0000.0,0001.33,0000.83,0000.58
2021-11-27 09:14:00,,0826.5,5.01,0.00,28.2,27.2,00.0,37.2,29.9,07.5,0000.0,0001.38,0000.83,0000.58
2021-11-27 09:15:00,,0826.5,5.00,0.00,28.2,27.2,00.0,37.2,29.9,07.5,0000.0,0001.50,0000.80,0000.58
2021-11-27 09:16:00,,0826.5,5.00,0.00,28.2,27.2,00.0,37.2,29.9,07.6,0000.0,0001.51,0000.79,0000.58
2021-11-27 09:17:00,,0826.5,5.00,0.00,28.2,27.2,00.0,37.2,29.9,07.6,0000.0,0001.56,0000.82,0000.58
2021-11-27 09:18:00,,0826.5,5.01,0.00,28.1,27.2,00.0,37.2,29.9,07.6,0000.0,0001.62,0000.85,0000.59
2021-11-27 09:19:00,,0826.5,5.01,0.00,28.1,27.2,00.0,37.2,29.8,07.6,0000.0,0001.66,0000.86,0000.59
2021-11-27 09:20:00,,0826.5,4.99,0.00,28.1,27.1,00.0,37.2,29.7,07.5,0000.0,0001.61,0000.84,0000.60
2021-11-27 09:21:00,,0826.5,5.01,0.00,28.1,27.1,00.0,37.2,29.8,07.4,0000.0,0001.65,0000.84,0000.60
2021-11-27 09:22:00,,0826.5,4.99,0.00,28.1,27.1,00.0,37.2,29.8,07.4,0000.0,0001.64,0000.84,0000.60
2021-11-27 09:23:00,,0826.5,5.02,0.00,28.0,27.1,00.0,37.2,29.7,07.4,0000.0,0001.73,0000.87,0000.61
2021-11-27 09:24:00,,0826.5,4.99,0.00,28.0,27.0,00.0,37.2,29.7,07.4,0000.0,0001.76,0000.90,0000.61
2021-11-27 09:25:00,,0826.5,5.00,0.00,28.0,27.0,00.0,37.2,29.7,07.4,0000.0,0001.76,0000.90,0000.62
2021-11-27 09:26:00,,0826.5,5.01,0.00,27.9,27.0,00.0,37.1,29.6,07.5,0000.0,0001.68,0000.92,0000.63
2021-11-27 09:27:00,,0826.5,4.98,0.00,27.9,26.9,00.0,37.1,29.6,07.5,0000.0,0001.72,0000.96,0000.64
2021-11-27 09:28:00,,0826.5,5.02,0.00,27.9,26.9,00.0,37.1,29.5,07.7,0000.0,0001.84,0001.00,0000.64
2021-11-27 09:29:00,,0826.4,4.99,0.00,27.9,26.9,00.0,37.1,29.5,07.7,0000.0,0001.92,0001.02,0000.64
2021-11-27 09:30:00,,0826.4,5.01,0.00,27.8,26.9,00.0,37.1,29.5,07.8,0000.0,0001.89,0001.01,0000.64
2021-11-27 09:31:00,,0826.4,5.00,0.00,27.8,26.8,00.0,37.0,29.5,07.8,0000.0,0001.86,0000.99,0000.63
2021-11-27 09:32:00,,0826.4,4.99,0.00,27.8,26.8,00.0,37.0,29.5,07.8,0000.0,0001.75,0000.98,0000.61
2021-11-27 09:33:00,,0826.4,5.01,0.00,27.8,26.8,00.0,37.0,29.4,07.8,0000.0,0001.91,0001.01,0000.61
2021-11-27 09:34:00,,0826.4,4.99,0.00,27.8,26.8,00.0,37.0,29.4,07.8,0000.0,0002.08,0001.00,0000.60
2021-11-27 09:35:00,,0826.4,4.99,0.00,27.8,26.8,00.0,37.0,29.4,07.8,0000.0,0002.09,0000.99,0000.59
2021-11-27 09:36:00,,0826.4,4.99,0.00,27.8,26.8,00.0,36.9,29.4,07.8,0000.0,0002.02,0000.97,0000.59
2021-11-27 09:37:00,,0826.3,5.01,0.00,27.8,26.8,00.0,36.9,29.4,07.8,0000.0,0001.89,0000.95,0000.58
2021-11-27 09:38:00,,0826.3,4.98,0.00,27.8,26.8,00.0,36.9,29.4,07.9,0000.0,0001.92,0000.97,0000.58
2021-11-27 09:39:00,,0826.3,5.00,0.00,27.8,26.8,00.0,36.9,29.4,07.9,0000.0,0001.88,0000.93,0000.57
2021-11-27 09:40:00,,0826.3,5.00,0.00,27.8,26.8,00.0,36.9,29.4,07.9,0000.0,0001.86,0000.89,0000.56
2021-11-27 09:41:00,,0826.4,5.01,0.00,27.8,26.8,00.0,36.9,29.5,07.9,0000.0,0001.91,0000.89,0000.56
2021-11-27 09:42:00,,0826.4,4.99,0.00,27.8,26.8,00.0,36.9,29.5,07.9,0000.0,0001.91,0000.89,0000.56
2021-11-27 09:43:00,,0826.4,5.00,0.00,27.8,26.8,00.0,36.9,29.5,07.8,0000.0,0001.95,0000.90,0000.56
2021-11-27 09:44:00,,0826.3,5.00,0.00,27.8,26.9,00.0,36.9,29.5,07.7,0000.0,0001.89,0000.90,0000.57
2021-11-27 09:45:00,,0826.3,5.01,0.00,27.8,26.9,00.0,36.9,29.5,07.7,0000.0,0001.74,0000.90,0000.58
2021-11-27 09:46:00,,0826.2,4.99,0.00,27.8,26.9,00.0,36.9,29.5,07.8,0000.0,0001.55,0000.89,0000.58
2021-11-27 09:47:00,,0826.3,4.99,0.00,27.8,26.8,00.0,36.9,29.5,07.9,0000.0,0001.60,0000.90,0000.59
2021-11-27 09:48:00,,0826.2,5.01,0.00,27.8,26.9,00.0,36.9,29.5,07.8,0000.0,0002.42,0000.95,0000.59
2021-11-27 09:49:00,,0826.4,4.99,0.00,27.8,26.8,00.0,36.9,29.5,07.9,0000.0,0004.03,0000.93,0000.60
2021-11-27 09:50:00,,0826.3,5.01,0.00,27.8,26.8,00.0,36.9,29.5,07.9,0000.0,0004.03,0000.94,0000.61
2021-11-27 09:51:00,,0826.3,5.01,0.00,27.8,26.8,00.0,36.9,29.5,07.9,0000.0,0003.96,0000.94,0000.61
2021-11-27 09:52:00,,0826.3,4.98,0.00,27.8,26.8,00.0,36.9,29.5,08.0,0000.0,0003.94,0000.94,0000.60
2021-11-27 09:53:00,,0826.3,5.01,0.00,27.8,26.8,00.0,36.9,29.5,08.0,0000.0,0003.94,0000.94,0000.60
2021-11-27 09:54:00,,0826.3,5.00,0.00,27.8,26.8,00.0,36.9,29.5,08.0,0000.0,0003.89,0000.92,0000.61
2021-11-27 09:55:00,,0826.3,5.00,0.00,27.8,26.8,00.0,36.9,29.4,08.0,0000.0,0003.86,0000.90,0000.60
2021-11-27 09:56:00,,0826.3,4.98,0.00,27.8,26.8,00.0,36.9,29.4,08.0,0000.0,0003.81,0000.87,0000.60
2021-11-27 09:57:00,,0826.2,5.01,0.00,27.8,26.8,00.0,36.9,29.4,08.0,0000.0,0003.83,0000.87,0000.59
2021-11-27 09:58:00,,0826.2,5.00,0.00,27.8,26.8,00.0,36.9,29.4,08.0,0000.0,0003.87,0000.88,0000.59
2021-11-27 09:59:00,,0826.2,4.98,0.00,27.8,26.8,00.0,36.9,29.4,08.0,0000.0,0003.57,0000.86,0000.58
